HVN219 WSSS-WIII

Flight info

Callsign HVN219
Flight time 1h 30m
Altitude 37000
Route ANIT7A ANITO B470 PKP W26 BOSLO B470 BUNIK BUNI2F
Aircraft A20N/M-SDE2E3FGHIRWXY/LB1

Departure

Time 2026-05-01 09:40
Airport Singapore Changi Airport (WSSS)

Arrival

Time 2026-05-01 11:11
Airport Soekarno-Hatta International Airport (WIII)
Time Latitude Longitude Altitude Speed Heading
2026-05-01 09:04 1.34025 103.98560 23 ft 0 kts 292°
2026-05-01 09:18 1.34014 103.98584 26 ft 2 kts 295°
2026-05-01 09:19 1.34003 103.98603 28 ft 1 kts 329°
2026-05-01 09:19 1.33997 103.98607 26 ft 1 kts 357°
2026-05-01 09:19 1.33986 103.98606 25 ft 2 kts 18°
2026-05-01 09:20 1.33962 103.98596 24 ft 2 kts 18°
2026-05-01 09:20 1.33948 103.98591 26 ft 1 kts 24°
2026-05-01 09:21 1.33944 103.98589 23 ft 0 kts 24°
2026-05-01 09:24 1.33945 103.98589 23 ft 0 kts 24°
2026-05-01 09:24 1.33957 103.98594 24 ft 4 kts 24°
2026-05-01 09:24 1.33985 103.98606 25 ft 0 kts 22°
2026-05-01 09:27 1.33990 103.98608 24 ft 1 kts 22°
2026-05-01 09:27 1.34003 103.98614 24 ft 3 kts 22°
2026-05-01 09:28 1.34025 103.98623 25 ft 4 kts 22°
2026-05-01 09:28 1.34055 103.98636 23 ft 5 kts 30°
2026-05-01 09:28 1.34071 103.98670 23 ft 6 kts 88°
2026-05-01 09:28 1.34056 103.98713 24 ft 7 kts 114°
2026-05-01 09:29 1.34086 103.98811 23 ft 9 kts 30°
2026-05-01 09:29 1.34147 103.98838 23 ft 10 kts 22°
2026-05-01 09:30 1.34291 103.98898 24 ft 13 kts 23°
2026-05-01 09:30 1.34376 103.98934 23 ft 14 kts 22°
2026-05-01 09:30 1.34572 103.99017 23 ft 17 kts 23°
2026-05-01 09:31 1.34674 103.99060 23 ft 18 kts 23°
2026-05-01 09:31 1.34797 103.99112 22 ft 20 kts 22°
2026-05-01 09:31 1.35072 103.99227 24 ft 23 kts 23°
2026-05-01 09:32 1.35222 103.99293 22 ft 24 kts 22°
2026-05-01 09:32 1.35547 103.99430 23 ft 26 kts 21°
2026-05-01 09:32 1.35719 103.99501 22 ft 27 kts 22°
2026-05-01 09:33 1.35898 103.99575 22 ft 28 kts 24°
2026-05-01 09:33 1.36013 103.99624 22 ft 17 kts 23°
2026-05-01 09:33 1.36202 103.99704 21 ft 7 kts 22°
2026-05-01 09:34 1.36243 103.99737 21 ft 8 kts 67°
2026-05-01 09:34 1.36236 103.99786 23 ft 0 kts 114°
2026-05-01 09:38 1.36231 103.99798 22 ft 3 kts 112°
2026-05-01 09:38 1.36218 103.99828 22 ft 6 kts 113°
2026-05-01 09:38 1.36189 103.99866 20 ft 8 kts 141°
2026-05-01 09:39 1.36106 103.99855 20 ft 21 kts 202°
2026-05-01 09:39 1.35704 103.99686 23 ft 103 kts 202°
2026-05-01 09:39 1.34827 103.99305 34 ft 167 kts 207°
2026-05-01 09:40 1.33701 103.98779 509 ft 185 kts 205°
2026-05-01 09:40 1.31312 103.97781 2139 ft 191 kts 201°
2026-05-01 09:40 1.30055 103.97266 2520 ft 202 kts 201°
2026-05-01 09:41 1.28696 103.96706 2786 ft 218 kts 201°
2026-05-01 09:41 1.25682 103.95450 3397 ft 250 kts 201°
2026-05-01 09:41 1.23988 103.95125 3959 ft 252 kts 171°
2026-05-01 09:42 1.22386 103.95824 4449 ft 259 kts 135°
2026-05-01 09:42 1.21315 103.97298 4969 ft 268 kts 116°
2026-05-01 09:42 1.20139 104.00236 5864 ft 275 kts 109°
2026-05-01 09:43 1.18854 104.03845 6004 ft 275 kts 110°
2026-05-01 09:43 1.18160 104.05621 6008 ft 275 kts 112°
2026-05-01 09:43 1.17366 104.07365 6009 ft 275 kts 115°
2026-05-01 09:44 1.15648 104.10779 6007 ft 275 kts 117°
2026-05-01 09:44 1.14771 104.12479 6004 ft 275 kts 117°
2026-05-01 09:44 1.13895 104.14182 6009 ft 275 kts 116°
2026-05-01 09:45 1.13031 104.15892 6005 ft 276 kts 116°
2026-05-01 09:45 1.11322 104.19318 6009 ft 276 kts 116°
2026-05-01 09:45 1.10468 104.21032 6008 ft 276 kts 118°
2026-05-01 09:46 1.09315 104.22553 6012 ft 276 kts 138°
2026-05-01 09:46 1.07665 104.23575 6061 ft 277 kts 160°
2026-05-01 09:46 1.05760 104.23920 6585 ft 280 kts 179°
2026-05-01 09:46 1.03808 104.23897 7231 ft 284 kts 179°
2026-05-01 09:47 1.01823 104.23874 7895 ft 287 kts 179°
2026-05-01 09:47 0.99818 104.23851 8555 ft 289 kts 179°
2026-05-01 09:47 0.97766 104.23825 9213 ft 292 kts 179°
2026-05-01 09:47 0.95725 104.23799 9840 ft 295 kts 179°
2026-05-01 09:48 0.93652 104.23770 10298 ft 304 kts 179°
2026-05-01 09:48 0.91480 104.23740 10528 ft 320 kts 179°
2026-05-01 09:48 0.89210 104.23710 10728 ft 335 kts 179°
2026-05-01 09:48 0.86817 104.23680 10906 ft 351 kts 179°
2026-05-01 09:49 0.84303 104.23648 11273 ft 359 kts 179°
2026-05-01 09:49 0.81799 104.23715 11780 ft 361 kts 171°
2026-05-01 09:49 0.79345 104.24245 12302 ft 361 kts 160°
2026-05-01 09:49 0.77048 104.25248 12807 ft 362 kts 148°
2026-05-01 09:50 0.74868 104.26523 13302 ft 365 kts 148°
2026-05-01 09:50 0.72670 104.27809 13780 ft 368 kts 148°
2026-05-01 09:50 0.70448 104.29104 14217 ft 370 kts 148°
2026-05-01 09:50 0.68214 104.30402 14655 ft 373 kts 148°
2026-05-01 09:51 0.65964 104.31711 15083 ft 375 kts 148°
2026-05-01 09:51 0.63677 104.33047 15521 ft 378 kts 148°
2026-05-01 09:51 0.61395 104.34381 15954 ft 381 kts 147°
2026-05-01 09:51 0.59104 104.35719 16375 ft 383 kts 147°
2026-05-01 09:52 0.56795 104.37066 16805 ft 386 kts 147°
2026-05-01 09:52 0.54466 104.38422 17236 ft 388 kts 147°
2026-05-01 09:52 0.52123 104.39783 17666 ft 391 kts 147°
2026-05-01 09:52 0.49728 104.41173 18100 ft 394 kts 147°
2026-05-01 09:53 0.47385 104.42538 18477 ft 396 kts 147°
2026-05-01 09:53 0.44997 104.43932 18852 ft 399 kts 147°
2026-05-01 09:53 0.42566 104.45351 19245 ft 401 kts 147°
2026-05-01 09:53 0.40148 104.46760 19644 ft 403 kts 147°
2026-05-01 09:54 0.37717 104.48175 20028 ft 405 kts 147°
2026-05-01 09:54 0.35277 104.49596 20410 ft 408 kts 147°
2026-05-01 09:54 0.32816 104.51028 20786 ft 410 kts 147°
2026-05-01 09:54 0.30347 104.52464 21150 ft 412 kts 147°
2026-05-01 09:55 0.27869 104.53908 21496 ft 414 kts 147°
2026-05-01 09:55 0.25367 104.55368 21836 ft 417 kts 147°
2026-05-01 09:55 0.22858 104.56833 22167 ft 419 kts 147°
2026-05-01 09:55 0.20335 104.58302 22480 ft 421 kts 148°
2026-05-01 09:56 0.17835 104.59759 22790 ft 423 kts 148°
2026-05-01 09:56 0.15217 104.61286 23098 ft 425 kts 148°
2026-05-01 09:56 0.12653 104.62779 23386 ft 427 kts 148°
2026-05-01 09:56 0.10089 104.64272 23628 ft 429 kts 148°
2026-05-01 09:57 0.07501 104.65781 23872 ft 431 kts 148°
2026-05-01 09:57 0.04873 104.67313 24110 ft 432 kts 148°
2026-05-01 09:57 0.02270 104.68829 24347 ft 434 kts 148°
2026-05-01 09:57 -0.00348 104.70354 24577 ft 436 kts 148°
2026-05-01 09:58 -0.02962 104.71879 24797 ft 437 kts 148°
2026-05-01 09:58 -0.05599 104.73413 25032 ft 439 kts 148°
2026-05-01 09:58 -0.08243 104.74950 25258 ft 440 kts 148°
2026-05-01 09:58 -0.10893 104.76496 25479 ft 442 kts 148°
2026-05-01 09:59 -0.13552 104.78047 25696 ft 444 kts 148°
2026-05-01 09:59 -0.16226 104.79605 25912 ft 445 kts 148°
2026-05-01 09:59 -0.18907 104.81166 26120 ft 447 kts 148°
2026-05-01 09:59 -0.21586 104.82727 26326 ft 448 kts 148°
2026-05-01 10:00 -0.24288 104.84305 26534 ft 450 kts 148°
2026-05-01 10:00 -0.27028 104.85905 26729 ft 451 kts 148°
2026-05-01 10:00 -0.29723 104.87513 26923 ft 452 kts 147°
2026-05-01 10:00 -0.32373 104.89219 27117 ft 453 kts 145°
2026-05-01 10:01 -0.34980 104.90991 27339 ft 454 kts 144°
2026-05-01 10:01 -0.37569 104.92799 27630 ft 453 kts 144°
2026-05-01 10:01 -0.40141 104.94603 27928 ft 452 kts 144°
2026-05-01 10:01 -0.42723 104.96399 28220 ft 452 kts 144°
2026-05-01 10:02 -0.45315 104.98178 28506 ft 452 kts 144°
2026-05-01 10:02 -0.47913 104.99941 28794 ft 452 kts 145°
2026-05-01 10:02 -0.50518 105.01695 29079 ft 452 kts 145°
2026-05-01 10:02 -0.53122 105.03448 29374 ft 451 kts 145°
2026-05-01 10:03 -0.55732 105.05203 29693 ft 451 kts 145°
2026-05-01 10:03 -0.58331 105.06955 29973 ft 451 kts 145°
2026-05-01 10:03 -0.60930 105.08710 30232 ft 451 kts 145°
2026-05-01 10:03 -0.63560 105.10489 30493 ft 450 kts 145°
2026-05-01 10:04 -0.66151 105.12243 30769 ft 450 kts 144°
2026-05-01 10:04 -0.68771 105.14021 31042 ft 449 kts 144°
2026-05-01 10:04 -0.71358 105.15773 31323 ft 448 kts 144°
2026-05-01 10:04 -0.73934 105.17517 31609 ft 448 kts 144°
2026-05-01 10:05 -0.76510 105.19260 31897 ft 447 kts 144°
2026-05-01 10:05 -0.79081 105.20999 32187 ft 446 kts 144°
2026-05-01 10:05 -0.80787 105.22150 32382 ft 446 kts 144°
2026-05-01 10:05 -0.83351 105.23882 32677 ft 445 kts 144°
2026-05-01 10:06 -0.85915 105.25620 32965 ft 444 kts 144°
2026-05-01 10:06 -0.88462 105.27347 33233 ft 443 kts 144°
2026-05-01 10:06 -0.91049 105.29097 33510 ft 442 kts 144°
2026-05-01 10:06 -0.93632 105.30841 33779 ft 441 kts 144°
2026-05-01 10:07 -0.96169 105.32552 34012 ft 441 kts 144°
2026-05-01 10:07 -0.98708 105.34268 34231 ft 440 kts 144°
2026-05-01 10:07 -1.01280 105.36004 34445 ft 439 kts 144°
2026-05-01 10:07 -1.03806 105.37714 34652 ft 439 kts 144°
2026-05-01 10:08 -1.08845 105.41140 35052 ft 438 kts 144°
2026-05-01 10:08 -1.11362 105.42853 35238 ft 437 kts 144°
2026-05-01 10:08 -1.13880 105.44564 35422 ft 437 kts 144°
2026-05-01 10:09 -1.16391 105.46268 35604 ft 436 kts 144°
2026-05-01 10:09 -1.18905 105.47970 35778 ft 436 kts 144°
2026-05-01 10:09 -1.21418 105.49666 35948 ft 436 kts 144°
2026-05-01 10:09 -1.23933 105.51361 36110 ft 436 kts 144°
2026-05-01 10:10 -1.26439 105.53053 36281 ft 435 kts 144°
2026-05-01 10:10 -1.28985 105.54773 36443 ft 435 kts 144°
2026-05-01 10:10 -1.33994 105.58166 36767 ft 434 kts 144°
2026-05-01 10:11 -1.39015 105.61569 36854 ft 439 kts 144°
2026-05-01 10:11 -1.44094 105.65012 36854 ft 442 kts 144°
2026-05-01 10:12 -1.49163 105.68445 36851 ft 433 kts 144°
2026-05-01 10:12 -1.54076 105.71768 36857 ft 421 kts 144°
2026-05-01 10:13 -1.56512 105.73418 36858 ft 424 kts 144°
2026-05-01 10:13 -1.61399 105.76730 36854 ft 425 kts 144°
2026-05-01 10:14 -1.68729 105.81695 36855 ft 424 kts 144°
2026-05-01 10:14 -1.73611 105.85002 36854 ft 424 kts 144°
2026-05-01 10:15 -1.78494 105.88309 36854 ft 424 kts 144°
2026-05-01 10:15 -1.83385 105.91614 36856 ft 424 kts 144°
2026-05-01 10:16 -1.88267 105.94925 36855 ft 424 kts 144°
2026-05-01 10:17 -1.95657 105.99929 36859 ft 424 kts 144°
2026-05-01 10:17 -2.02981 106.04899 36858 ft 422 kts 143°
2026-05-01 10:18 -2.10315 106.09862 36857 ft 423 kts 143°
2026-05-01 10:19 -2.15239 106.13060 36857 ft 423 kts 151°
2026-05-01 10:19 -2.20843 106.14929 36859 ft 429 kts 168°
2026-05-01 10:20 -2.29668 106.16420 36857 ft 429 kts 168°
2026-05-01 10:20 -2.35550 106.17427 36862 ft 429 kts 168°
2026-05-01 10:21 -2.44402 106.18939 36859 ft 429 kts 168°
2026-05-01 10:22 -2.53218 106.20453 36859 ft 429 kts 168°
2026-05-01 10:23 -2.62035 106.21964 36856 ft 429 kts 168°
2026-05-01 10:23 -2.70868 106.23470 36857 ft 429 kts 168°
2026-05-01 10:24 -2.82633 106.25486 36853 ft 429 kts 168°
2026-05-01 10:25 -2.94393 106.27496 36849 ft 429 kts 168°
2026-05-01 10:26 -3.00283 106.28507 36851 ft 429 kts 168°
2026-05-01 10:27 -3.12048 106.30527 36851 ft 429 kts 168°
2026-05-01 10:28 -3.20911 106.32041 36854 ft 429 kts 168°
2026-05-01 10:28 -3.29736 106.33551 36853 ft 429 kts 168°
2026-05-01 10:29 -3.37596 106.34898 36857 ft 429 kts 168°
2026-05-01 10:30 -3.49357 106.36912 36861 ft 428 kts 168°
2026-05-01 10:31 -3.61099 106.38930 36864 ft 427 kts 168°
2026-05-01 10:32 -3.66936 106.39955 36565 ft 422 kts 169°
2026-05-01 10:32 -3.69831 106.40497 36432 ft 425 kts 168°
2026-05-01 10:32 -3.75643 106.41611 36214 ft 425 kts 168°
2026-05-01 10:33 -3.81448 106.42711 36032 ft 424 kts 168°
2026-05-01 10:33 -3.87226 106.43798 35809 ft 421 kts 168°
2026-05-01 10:34 -3.90110 106.44338 35689 ft 421 kts 168°
2026-05-01 10:34 -3.92984 106.44874 35572 ft 420 kts 169°
2026-05-01 10:34 -3.95855 106.45408 35458 ft 420 kts 169°
2026-05-01 10:35 -4.01589 106.46478 35286 ft 419 kts 168°
2026-05-01 10:35 -4.04452 106.47015 35202 ft 418 kts 168°
2026-05-01 10:35 -4.10157 106.48082 34997 ft 416 kts 168°
2026-05-01 10:36 -4.15869 106.49151 34768 ft 414 kts 168°
2026-05-01 10:36 -4.18707 106.49679 34655 ft 414 kts 168°
2026-05-01 10:36 -4.21536 106.50207 34551 ft 413 kts 168°
2026-05-01 10:37 -4.24358 106.50735 34397 ft 414 kts 168°
2026-05-01 10:37 -4.30017 106.51797 33399 ft 414 kts 168°
2026-05-01 10:37 -4.32849 106.52331 32868 ft 413 kts 168°
2026-05-01 10:38 -4.35676 106.52864 32351 ft 413 kts 168°
2026-05-01 10:38 -4.38501 106.53395 31845 ft 413 kts 168°
2026-05-01 10:38 -4.41329 106.53925 31348 ft 413 kts 168°
2026-05-01 10:38 -4.44192 106.54461 30854 ft 413 kts 168°
2026-05-01 10:39 -4.47024 106.54989 30371 ft 414 kts 168°
2026-05-01 10:39 -4.49851 106.55517 29900 ft 414 kts 168°
2026-05-01 10:39 -4.52682 106.56048 29345 ft 414 kts 168°
2026-05-01 10:39 -4.55513 106.56577 28800 ft 414 kts 168°
2026-05-01 10:40 -4.58376 106.57113 28260 ft 414 kts 168°
2026-05-01 10:40 -4.61170 106.57638 27741 ft 414 kts 168°
2026-05-01 10:40 -4.64035 106.58178 27219 ft 413 kts 168°
2026-05-01 10:40 -4.66861 106.58712 26714 ft 413 kts 168°
2026-05-01 10:41 -4.69689 106.59244 26218 ft 413 kts 168°
2026-05-01 10:41 -4.72512 106.59770 25728 ft 413 kts 168°
2026-05-01 10:41 -4.78152 106.60825 24777 ft 412 kts 168°
2026-05-01 10:42 -4.80972 106.61352 24314 ft 412 kts 168°
2026-05-01 10:42 -4.83791 106.61881 23858 ft 412 kts 168°
2026-05-01 10:42 -4.86547 106.62602 23408 ft 410 kts 159°
2026-05-01 10:42 -4.89182 106.63708 22862 ft 409 kts 154°
2026-05-01 10:43 -4.91760 106.64902 22330 ft 408 kts 154°
2026-05-01 10:43 -4.94366 106.66098 21801 ft 407 kts 154°
2026-05-01 10:43 -4.96951 106.67276 21286 ft 406 kts 154°
2026-05-01 10:43 -4.99523 106.68446 20781 ft 405 kts 154°
2026-05-01 10:44 -5.02087 106.69613 20284 ft 404 kts 154°
2026-05-01 10:44 -5.04637 106.70774 19796 ft 402 kts 154°
2026-05-01 10:44 -5.07179 106.71936 19316 ft 400 kts 154°
2026-05-01 10:44 -5.09703 106.73091 18844 ft 398 kts 154°
2026-05-01 10:45 -5.12211 106.74239 18380 ft 395 kts 154°
2026-05-01 10:45 -5.14704 106.75379 17882 ft 393 kts 154°
2026-05-01 10:45 -5.17213 106.76527 17345 ft 390 kts 154°
2026-05-01 10:45 -5.19672 106.77651 16820 ft 387 kts 154°
2026-05-01 10:46 -5.22112 106.78759 16310 ft 383 kts 155°
2026-05-01 10:46 -5.24535 106.79852 15804 ft 380 kts 155°
2026-05-01 10:46 -5.26937 106.80934 15310 ft 376 kts 155°
2026-05-01 10:46 -5.29312 106.82006 14826 ft 373 kts 155°
2026-05-01 10:47 -5.31668 106.83071 14345 ft 370 kts 155°
2026-05-01 10:47 -5.34003 106.84127 13871 ft 366 kts 155°
2026-05-01 10:47 -5.36313 106.85171 13369 ft 363 kts 155°
2026-05-01 10:47 -5.38610 106.86210 12841 ft 360 kts 155°
2026-05-01 10:48 -5.40881 106.87239 12321 ft 357 kts 155°
2026-05-01 10:48 -5.43166 106.88268 11808 ft 354 kts 156°
2026-05-01 10:48 -5.45517 106.88987 11302 ft 352 kts 168°
2026-05-01 10:48 -5.47949 106.89193 10807 ft 351 kts 180°
2026-05-01 10:49 -5.50366 106.88884 10318 ft 350 kts 192°
2026-05-01 10:49 -5.52670 106.88113 9838 ft 349 kts 200°
2026-05-01 10:49 -5.54928 106.87238 9322 ft 347 kts 200°
2026-05-01 10:49 -5.57169 106.86374 8796 ft 344 kts 200°
2026-05-01 10:50 -5.59397 106.85517 8283 ft 342 kts 200°
2026-05-01 10:50 -5.61615 106.84666 7768 ft 340 kts 200°
2026-05-01 10:50 -5.63840 106.83901 7255 ft 336 kts 191°
2026-05-01 10:50 -5.66077 106.83279 6852 ft 329 kts 191°
2026-05-01 10:51 -5.68206 106.82579 6797 ft 312 kts 195°
2026-05-01 10:51 -5.70185 106.81819 6873 ft 290 kts 196°
2026-05-01 10:51 -5.71987 106.81072 6925 ft 270 kts 197°
2026-05-01 10:51 -5.73654 106.80380 6994 ft 249 kts 193°
2026-05-01 10:52 -5.75242 106.79777 7009 ft 245 kts 193°
2026-05-01 10:52 -5.76839 106.79180 7053 ft 245 kts 191°
2026-05-01 10:52 -5.78469 106.78698 7061 ft 244 kts 185°
2026-05-01 10:52 -5.80137 106.78381 7057 ft 243 kts 180°
2026-05-01 10:53 -5.81819 106.78229 7045 ft 243 kts 175°
2026-05-01 10:53 -5.83513 106.78147 6904 ft 245 kts 181°
2026-05-01 10:53 -5.85127 106.77599 6412 ft 250 kts 212°
2026-05-01 10:53 -5.86226 106.76306 6553 ft 242 kts 234°
2026-05-01 10:54 -5.87052 106.74788 7052 ft 263 kts 235°
2026-05-01 10:54 -5.87765 106.73133 7228 ft 248 kts 245°
2026-05-01 10:54 -5.88252 106.71477 7575 ft 252 kts 247°
2026-05-01 10:54 -5.88755 106.69767 7602 ft 254 kts 245°
2026-05-01 10:55 -5.89328 106.68129 7535 ft 241 kts 239°
2026-05-01 10:55 -5.90001 106.66656 7380 ft 226 kts 232°
2026-05-01 10:55 -5.90804 106.65171 7276 ft 253 kts 234°
2026-05-01 10:55 -5.91340 106.64153 7932 ft 232 kts 234°
2026-05-01 10:56 -5.92074 106.62740 8258 ft 237 kts 232°
2026-05-01 10:56 -5.92844 106.61144 7388 ft 265 kts 246°
2026-05-01 10:56 -5.93399 106.59467 7473 ft 251 kts 244°
2026-05-01 10:56 -5.93954 106.57740 7039 ft 261 kts 244°
2026-05-01 10:57 -5.94570 106.56070 6946 ft 254 kts 240°
2026-05-01 10:57 -5.95289 106.54451 6902 ft 254 kts 237°
2026-05-01 10:57 -5.96107 106.52879 6895 ft 254 kts 233°
2026-05-01 10:57 -5.96953 106.51319 6828 ft 256 kts 240°
2026-05-01 10:58 -5.97569 106.49645 6894 ft 255 kts 244°
2026-05-01 10:58 -5.98068 106.47917 6821 ft 260 kts 249°
2026-05-01 10:58 -5.98486 106.46139 6367 ft 263 kts 251°
2026-05-01 10:58 -5.98870 106.44342 5952 ft 263 kts 252°
2026-05-01 10:59 -5.99208 106.42539 5568 ft 262 kts 253°
2026-05-01 10:59 -5.99514 106.40744 5248 ft 258 kts 253°
2026-05-01 10:59 -5.99815 106.38985 4959 ft 253 kts 252°
2026-05-01 10:59 -6.00280 106.37337 4635 ft 248 kts 240°
2026-05-01 11:00 -6.01085 106.35817 4264 ft 244 kts 229°
2026-05-01 11:00 -6.02152 106.34539 3991 ft 236 kts 215°
2026-05-01 11:00 -6.03482 106.33547 3660 ft 235 kts 202°
2026-05-01 11:00 -6.04926 106.32912 3828 ft 224 kts 192°
2026-05-01 11:01 -6.06425 106.32331 4036 ft 232 kts 198°
2026-05-01 11:01 -6.07740 106.31651 5146 ft 204 kts 198°
2026-05-01 11:01 -6.09143 106.31045 4518 ft 233 kts 182°
2026-05-01 11:01 -6.10762 106.30996 4190 ft 236 kts 168°
2026-05-01 11:02 -6.12385 106.31282 3857 ft 233 kts 160°
2026-05-01 11:02 -6.13946 106.31746 3772 ft 235 kts 153°
2026-05-01 11:02 -6.15423 106.32436 3856 ft 235 kts 144°
2026-05-01 11:02 -6.16773 106.33363 4054 ft 236 kts 135°
2026-05-01 11:03 -6.17991 106.34479 4175 ft 240 kts 133°
2026-05-01 11:03 -6.19329 106.35467 3886 ft 240 kts 146°
2026-05-01 11:03 -6.20697 106.36305 3872 ft 233 kts 139°
2026-05-01 11:03 -6.22001 106.37297 3908 ft 236 kts 134°
2026-05-01 11:04 -6.23173 106.38452 4031 ft 236 kts 123°
2026-05-01 11:04 -6.24032 106.39857 3887 ft 234 kts 106°
2026-05-01 11:04 -6.24373 106.41457 3774 ft 236 kts 84°
2026-05-01 11:04 -6.24008 106.43046 3482 ft 233 kts 56°
2026-05-01 11:05 -6.23130 106.44359 3034 ft 221 kts 43°
2026-05-01 11:05 -6.22226 106.45521 2768 ft 201 kts 50°
2026-05-01 11:05 -6.21627 106.46765 2526 ft 193 kts 63°
2026-05-01 11:05 -6.21248 106.48010 2462 ft 183 kts 45°
2026-05-01 11:07 -6.20198 106.45121 2224 ft 189 kts 142°
2026-05-01 11:07 -6.20903 106.46109 1750 ft 178 kts 77°
2026-05-01 11:07 -6.20590 106.47414 1741 ft 201 kts 61°
2026-05-01 11:07 -6.20172 106.48815 1810 ft 219 kts 69°
2026-05-01 11:08 -6.19812 106.50380 1835 ft 241 kts 69°
2026-05-01 11:08 -6.19316 106.52036 1988 ft 250 kts 64°
2026-05-01 11:08 -6.18095 106.55005 2158 ft 215 kts 59°
2026-05-01 11:09 -6.17433 106.56358 2122 ft 214 kts 53°
2026-05-01 11:09 -6.16818 106.57692 1698 ft 211 kts 62°
2026-05-01 11:09 -6.16332 106.58995 1377 ft 191 kts 56°
2026-05-01 11:10 -6.15306 106.61444 740 ft 193 kts 59°
2026-05-01 11:10 -6.14865 106.62710 428 ft 191 kts 60°
2026-05-01 11:10 -6.14394 106.63969 197 ft 192 kts 60°
2026-05-01 11:10 -6.13894 106.65200 74 ft 185 kts 72°
2026-05-01 11:11 -6.13510 106.66260 39 ft 120 kts 65°
2026-05-01 11:11 -6.13360 106.66568 43 ft 16 kts 46°
2026-05-01 11:11 -6.13316 106.66617 43 ft 4 kts 47°
2026-05-01 11:11 -6.13279 106.66653 42 ft 10 kts 34°
2026-05-01 11:12 -6.13236 106.66685 41 ft 0 kts 38°
2026-05-01 11:12 -6.13233 106.66687 41 ft 2 kts 38°
2026-05-01 11:13 -6.13211 106.66701 41 ft 5 kts 28°
2026-05-01 11:13 -6.13191 106.66705 40 ft 0 kts
2026-05-01 11:14 -6.13188 106.66705 40 ft 2 kts
2026-05-01 11:14 -6.13160 106.66706 40 ft 5 kts
2026-05-01 11:15 -6.13122 106.66730 39 ft 7 kts 44°
2026-05-01 11:15 -6.13096 106.66781 39 ft 9 kts 69°
2026-05-01 11:15 -6.13072 106.66846 39 ft 11 kts 69°
2026-05-01 11:15 -6.13042 106.66925 39 ft 13 kts 67°
2026-05-01 11:16 -6.13002 106.67012 38 ft 15 kts 66°
2026-05-01 11:16 -6.12961 106.67111 37 ft 16 kts 71°
2026-05-01 11:16 -6.12919 106.67224 39 ft 18 kts 69°
2026-05-01 11:16 -6.12872 106.67351 38 ft 20 kts 70°
2026-05-01 11:17 -6.12837 106.67435 39 ft 0 kts 46°
2026-05-01 11:18 -6.12834 106.67441 39 ft 1 kts 64°
2026-05-01 11:18 -6.12827 106.67457 39 ft 4 kts 64°